DMSP 5D-2 F13 DEB, 40462

Orbit data source: Space-Track

DMSP 5D-2 F13 DEB, 40462 is space debris in SSO originally from a launch on Fri, 24 Mar 1995 UTC launched from the Air Force Western Test Range (AFWTR). Debris objects in space refer to the collection of defunct objects orbiting the Earth. Examples of debris include non-operational satellites, rocket bodies, and fragments generated from explosions, collisions, or faulty payload assembly.

Loading next visibility...
Identifier
40462, 1995-015BE
Orbit
SSO
Country
Flag of USUS
Related business
Manufacturer
Unknown
Mission
Spacecraft
Bus & Motor
Unknown
Mass
Unknown
Launch date (UTC)
1995-03-24 (31 years ago)
Launch vehicle
Unknown
Launch site
Air Force Western Test Range (AFWTR)
Object type
Payload
Rocket body
Debris
Shape & HBR
Unknown shape, 0.1 m
Radar Cross Section
Medium (>0.1 m² and <1 m²)

Expand to show TLE details & history
Last TLE update: 4 days ago

TLE from 4 days ago
0 DMSP 5D-2 F13 DEB
1 40462U 95015BE  26169.57647412  .00007637  00000-0  20758-2 0  9993
2 40462  98.9515 216.5693 0029827   6.7694 353.3894 14.47547299582009
Epoch: 2026-06-18T13:50Z
TLE epoch observation values (Epoch: 2026-06-18T13:50:07.363Z)
Latitude
-0.00004°
Longitude
102.22081°
Altitude
715.54 km
Speed
7.509 km/s
True Right ascension
14h 26m 16s
True Declination
0° 00' 00"
Sunlit
Object was in full shadow at epoch
Visualization orbit readout
Latitude
Unknown
Longitude
Unknown
Altitude
Unknown
Speed
Unknown
Apparent Right ascension
Unknown
Apparent Declination
Unknown
Sunlit
N/A
Visualization observer readout
Local Sidereal Time
23:19:43
Azimuth
Unknown
Elevation
Unknown
Doppler factor
Unknown
Orbital elements
Apogee altitude
752.008 km
Perigee altitude
709.6 km
Semi-major axis
7,108.941 km
Eccentricity
0.00298
Inclination
98.9515°
RAAN
216.5693°
Arg. of periapsis
6.7694°
True anomaly
353.34991°
Mean anomaly
353.3894°
Eccentric anomaly
353.36967°
Mean motion
3.62106 °/min
Orbital period
99.42 mins
BSTAR
0.0020758
Loading maneuver chart data...
Computing Atmospheric mass density...

Documentation

Showing up to 5 results
|